Wind_Speed
2 3 3 4 4 4 4 3 3 3 4 3 3 3 4 4 4 4 3 3 3 3 4 4 4 4 4 3 3 3 3 2 3 3 2 2 2 2 2 2 3 2 2 3 3 4 4 4 4
3 4 4 4 5 4 4 4 4 5 4 3 3 3 3 3 3 4 4 3 3 4 5 5 5 5 5 5 4 4 4 3 3 4 3 3 3 3 3 4 4 4 3 3 4 4 4 4 5
4 4 4 5 5 5 5 5 6 6 5 5 4 4 4 4 4 4 4 4 4 4 5 5 5 5 5 5 5 5 4 4 4 4 4 4 4 5 5 5 5 5 5 4 4 5 5 5 6
4 4 5 5 5 5 6 6 7 7 7 6 6 5 5 5 5 5 5 4 5 5 5 5 5 5 6 6 6 6 5 5 5 5 5 5 5 6 6 6 6 6 6 6 6 6 6 6 7
5 5 5 5 6 5 6 6 6 7 7 6 6 6 6 6 6 6 6 6 5 5 5 5 5 5 5 5 5 6 6 6 6 6 6 7 6 6 7 7 7 7 7 7 7 7 7 7 7
6 5 5 6 6 6 5 6 7 7 7 6 7 6 6 6 6 6 6 6 6 6 6 6 6 6 6 6 7 6 7 7 7 7 7 7 7 7 7 8 8 8 9 8 8 9 9 8 8
5 5 5 5 5 6 6 6 7 7 7 7 7 7 6 5 5 6 6 6 7 6 6 6 6 6 7 7 7 7 7 7 7 7 8 8 8 8 8 9 9 10 9 9 9 9 10 10 10
5 5 5 5 5 5 5 6 6 7 7 7 7 7 6 6 6 6 6 6 7 7 6 6 6 6 6 7 7 7 7 7 7 8 8 8 8 9 9 9 10 11 11 10 10 10 10 10 10
5 5 5 5 5 5 6 6 6 7 7 7 7 7 7 7 7 7 7 7 7 6 6 6 6 6 6 7 7 7 7 8 8 8 8 9 9 9 9 10 10 11 10 10 10 10 10 10 11
5 5 5 6 6 6 6 6 6 7 7 7 7 7 7 7 7 7 7 7 7 7 6 6 6 6 7 7 7 7 8 8 8 8 9 9 9 9 9 10 10 10 10 10 11 11 11 12 12
6 6 6 6 6 6 6 6 6 6 7 7 7 7 7 7 7 7 7 7 7 7 6 6 6 6 7 7 7 8 8 8 8 9 9 10 10 10 10 10 11 11 11 12 12 12 13 13 13
6 6 7 7 7 7 7 7 6 6 6 6 7 7 7 7 7 7 7 7 7 6 6 6 6 7 7 7 8 8 8 8 9 9 9 9 10 11 11 11 11 12 12 13 13 14 14 14 14
6 6 7 7 7 7 7 6 6 5 6 6 6 6 6 7 7 7 7 7 7 7 7 7 7 7 8 8 8 9 9 9 9 9 9 10 10 11 11 11 11 12 13 13 14 14 14 15 15
6 7 7 8 8 7 7 6 6 6 6 6 7 6 6 7 7 7 7 7 7 7 8 8 8 8 8 8 9 9 9 9 9 9 10 10 11 11 11 12 12 13 13 14 14 15 15 15 15
8 7 7 8 8 7 7 7 7 7 7 7 7 7 7 7 8 8 7 7 7 7 8 8 8 8 8 9 9 9 10 10 10 10 10 10 10 11 11 11 12 13 14 14 14 15 16 16 16
9 8 8 8 8 8 7 7 7 7 8 8 8 7 7 8 8 8 7 7 8 8 8 8 9 9 9 9 9 10 10 10 10 10 10 10 10 11 11 12 12 13 14 15 15 16 16 16 16
10 9 9 9 9 8 8 8 9 8 8 8 8 8 8 8 9 9 8 8 8 9 9 9 9 9 10 10 10 10 10 10 11 11 11 11 11 12 12 13 13 14 14 15 15 16 16 16 16
10 10 10 10 10 10 9 9 9 9 9 9 9 9 9 9 9 9 9 9 10 10 10 9 10 10 10 10 10 10 11 11 11 11 11 11 12 12 13 13 14 14 15 15 15 16 16 16 16
10 11 10 10 11 11 10 10 10 10 10 10 10 10 9 10 10 9 9 10 10 11 11 11 11 11 11 11 12 12 12 13 13 12 13 13 13 14 14 15 15 15 15 15 16 16 16 17 17
11 11 11 11 11 11 11 10 11 11 11 11 11 10 10 10 11 11 11 11 11 12 12 12 12 11 12 12 12 13 14 14 14 13 13 14 15 15 15 15 16 16 16 16 17 17 17 17 17
11 11 11 10 11 11 11 10 10 11 12 12 12 11 11 11 12 12 12 12 12 12 13 13 13 13 13 13 13 14 14 15 15 15 15 15 16 16 16 16 16 16 16 17 17 17 17 17 17
10 11 11 11 11 11 12 12 11 12 12 12 12 12 12 13 13 13 13 13 13 13 13 14 14 14 15 15 15 15 15 16 16 16 16 16 16 16 17 17 17 16 16 17 17 17 17 17 17
10 10 11 11 12 12 13 13 11 12 12 12 12 13 13 13 14 13 13 13 13 13 14 15 15 16 16 16 16 16 17 17 17 17 17 17 16 17 17 17 17 17 17 17 17 16 16 16 16
11 11 11 12 13 13 13 13 11 11 12 12 13 13 13 14 14 14 15 15 15 15 16 16 17 17 17 17 17 17 17 18 18 17 17 18 17 17 17 17 17 17 17 17 17 16 16 16 16
12 12 13 13 13 13 12 12 10 11 13 13 13 13 13 14 15 15 16 16 17 17 17 17 17 17 18 17 17 17 18 18 19 19 18 18 18 18 18 18 18 18 18 17 17 16 16 16 17
13 13 13 14 14 13 12 12 11 12 13 14 14 14 14 14 15 16 16 17 17 17 17 17 18 18 18 17 18 18 19 19 19 19 19 19 19 19 18 18 18 18 18 18 17 17 17 17 17
14 14 14 14 14 14 14 14 13 13 14 15 15 14 15 15 16 17 17 17 18 17 18 18 18 18 18 19 19 19 20 20 20 20 20 20 20 19 19 20 20 19 19 18 18 18 18 18 18
16 15 15 16 16 16 15 15 15 14 14 15 16 16 16 16 17 17 18 18 18 18 18 19 19 19 19 19 20 20 20 20 20 21 22 21 22 21 21 21 21 21 20 20 19 19 19 19 20
16 16 17 17 18 19 18 16 17 17 17 17 17 17 17 18 18 19 19 19 19 19 19 19 20 20 20 20 20 20 21 21 21 21 22 22 23 23 23 23 22 22 21 21 21 21 21 21 21
17 17 18 19 19 20 19 18 18 19 19 19 19 19 19 19 19 20 20 21 21 20 20 20 20 20 20 20 21 21 21 21 21 22 22 22 23 23 23 23 23 23 23 23 22 23 22 22 22
Wind_Direction
254 246 241 239 241 239 243 246 243 234 212 210 204 198 193 191 199 208 216 220 221 222 226 218 214 215 211 210 215 225 242 257 262 263 265 266 273 273 266 274 280 279 266 266 270 259 259 265 267
263 261 257 252 252 252 249 249 248 244 234 233 222 206 203 208 211 214 224 231 235 234 230 231 229 229 227 230 235 238 245 260 267 266 268 272 272 275 273 268 269 272 267 266 268 269 266 270 270
270 267 263 258 256 258 256 251 249 247 242 243 238 231 234 233 230 233 238 244 244 244 242 242 241 237 234 237 241 242 249 258 263 264 266 271 270 270 271 264 262 262 261 262 269 273 272 272 270
271 274 268 263 258 255 255 248 244 243 243 247 249 243 241 240 242 244 244 244 244 246 248 249 246 240 239 242 249 249 251 254 261 263 264 269 270 267 266 259 259 258 257 264 272 273 268 273 275
268 272 271 271 266 260 256 245 241 244 243 245 245 241 240 242 243 246 246 246 245 244 241 243 247 244 241 243 250 252 252 254 258 262 265 271 272 270 267 262 258 259 261 266 272 274 272 274 280
270 269 268 274 272 265 256 246 241 242 244 247 244 241 241 246 246 246 246 245 245 247 245 243 244 244 245 246 251 256 259 257 258 263 266 269 269 269 269 267 263 263 267 271 273 273 274 277 280
272 272 273 275 274 271 264 253 242 241 246 249 247 245 245 247 248 248 248 246 245 248 248 247 247 247 248 251 254 257 258 260 260 263 265 267 269 269 269 269 267 267 270 271 270 268 270 275 277
278 278 278 274 270 268 264 257 248 244 245 249 249 247 247 248 251 254 254 252 250 248 247 247 250 253 251 251 256 258 257 262 265 266 267 268 268 267 266 266 268 270 269 271 272 269 272 273 274
278 279 275 269 272 272 266 256 251 250 247 247 248 247 249 250 253 255 256 256 254 249 249 250 254 257 255 255 258 260 259 262 265 267 269 270 267 266 264 265 266 267 271 275 274 271 271 272 273
274 277 276 270 270 271 271 264 258 256 250 247 246 247 250 253 254 255 256 255 254 251 250 253 254 258 258 258 259 259 260 263 267 269 271 271 268 266 266 267 267 270 272 274 276 274 272 271 274
271 271 272 271 270 267 269 267 264 261 256 252 250 249 250 252 252 254 257 257 255 254 252 254 257 259 261 261 262 261 262 268 270 272 273 273 271 270 271 269 269 271 271 274 276 276 274 274 275
271 270 269 269 268 264 266 266 263 259 259 256 255 253 252 254 255 257 257 256 255 254 255 258 261 262 263 265 265 265 266 269 272 274 275 275 274 275 275 272 271 272 272 273 275 277 276 275 275
267 270 268 267 266 265 263 261 258 253 254 251 252 257 258 256 255 255 256 257 261 258 256 258 263 263 264 267 268 268 267 269 271 272 275 278 280 278 275 273 272 273 272 272 273 274 276 278 277
265 265 266 265 265 264 261 259 258 255 254 251 252 254 257 257 253 251 256 259 260 259 259 263 267 266 267 268 269 269 270 271 272 273 275 277 280 277 275 274 276 277 275 272 273 274 275 277 278
262 261 260 261 263 263 261 260 258 257 257 258 258 255 256 257 256 255 255 258 259 260 263 263 269 272 271 272 270 271 272 273 274 275 277 280 282 281 279 280 280 279 276 275 275 275 276 277 279
261 258 260 260 259 257 260 261 261 258 257 257 255 254 253 255 257 257 257 259 262 263 265 269 270 274 273 272 272 272 271 271 274 274 277 280 283 283 283 286 285 283 280 279 279 279 278 278 278
260 259 261 261 260 256 259 259 261 259 257 256 255 255 255 256 256 257 256 258 262 264 266 272 274 275 273 273 274 273 273 274 275 276 277 278 281 284 285 286 285 284 284 283 281 281 280 278 278
261 260 260 262 259 256 257 257 256 262 260 257 256 255 256 259 259 258 257 259 263 266 268 272 274 276 274 273 273 273 273 274 275 276 277 279 282 285 286 287 286 286 286 285 282 281 282 281 279
264 263 264 263 260 256 256 256 256 257 259 257 254 254 252 255 258 260 261 260 261 265 268 272 272 274 275 274 275 276 276 276 277 277 278 279 282 284 283 285 286 285 284 284 283 281 282 281 281
268 266 267 264 264 263 258 257 259 257 257 256 254 253 254 258 260 259 260 262 263 265 268 269 269 269 272 274 276 277 277 278 278 278 278 279 282 282 282 284 285 285 284 284 284 282 282 282 281
270 270 270 268 265 265 264 259 258 258 257 256 256 255 258 259 261 262 260 262 265 267 268 269 270 267 269 273 276 277 277 277 277 277 278 280 282 283 283 283 285 285 285 285 286 284 284 283 281
271 273 272 272 267 265 267 265 260 260 262 261 259 257 258 258 258 259 262 264 266 270 268 266 269 269 269 272 274 274 274 275 276 276 277 280 282 283 284 284 284 284 285 285 287 286 285 283 281
272 273 273 273 272 271 269 269 262 259 262 260 258 258 259 262 264 262 263 267 269 271 272 268 269 271 270 270 272 273 275 276 276 277 277 279 281 282 284 285 284 284 285 285 286 288 287 284 282
270 272 271 271 272 273 273 273 265 264 265 263 261 263 264 266 267 266 265 267 272 273 273 273 272 272 273 273 272 273 274 275 275 275 275 277 278 279 283 283 284 284 286 286 285 286 288 287 284
269 271 269 270 271 271 273 272 271 268 268 268 270 270 268 267 267 267 269 270 275 277 275 273 273 273 272 272 273 275 276 275 274 274 275 276 277 278 281 283 283 284 286 284 283 284 287 289 286
269 273 273 272 273 273 273 274 273 269 266 268 270 270 268 269 270 271 271 275 280 280 277 273 273 273 271 271 274 275 275 275 274 275 276 276 276 276 278 280 281 282 283 283 282 282 284 287 287
270 272 272 272 274 274 275 277 273 274 271 269 269 270 269 272 273 273 273 276 280 281 279 276 273 272 270 270 273 274 274 273 274 274 275 275 276 277 277 279 280 280 281 281 281 281 282 285 286
272 272 271 273 275 277 278 278 278 276 274 271 268 269 271 272 274 274 274 277 278 279 279 276 273 273 271 271 272 273 273 273 274 274 273 275 275 276 278 279 278 278 279 279 280 280 280 282 284
272 270 271 273 275 281 281 278 280 280 278 276 270 267 271 271 272 274 274 277 279 279 280 278 275 276 274 275 274 276 274 271 272 274 275 275 275 277 278 277 276 276 277 278 278 279 281 282 282
273 271 272 273 276 277 280 279 280 281 280 277 272 266 268 269 271 273 275 277 278 279 280 278 276 276 276 275 276 277 276 273 272 273 275 275 275 276 276 276 276 275 276 278 279 279 280 280 281
Height
5851 5852 5853 5855 5856 5856 5855 5856 5856 5856 5857 5857 5858 5858 5859 5860 5861 5864 5862 5861 5862 5863 5863 5864 5864 5864 5865 5865 5866 5866 5866 5866 5867 5867 5867 5868 5868 5868 5869 5869 5869 5870 5870 5871 5871 5871 5872 5872 5872
5851 5852 5854 5854 5854 5855 5856 5856 5856 5856 5857 5857 5857 5858 5859 5859 5859 5860 5860 5861 5861 5862 5863 5863 5863 5864 5864 5864 5865 5865 5865 5866 5866 5866 5867 5867 5867 5868 5868 5868 5869 5869 5869 5870 5870 5871 5871 5871 5871
5851 5852 5853 5853 5853 5854 5855 5855 5855 5856 5856 5856 5857 5857 5858 5858 5859 5859 5860 5860 5861 5861 5862 5862 5862 5863 5863 5863 5864 5864 5865 5865 5865 5865 5866 5866 5866 5867 5867 5868 5868 5868 5868 5869 5869 5870 5870 5870 5870
5851 5852 5853 5853 5853 5853 5854 5854 5854 5855 5855 5856 5856 5856 5857 5858 5858 5858 5859 5859 5860 5860 5861 5861 5861 5861 5862 5862 5863 5863 5863 5864 5864 5864 5864 5865 5865 5866 5866 5866 5867 5867 5867 5868 5868 5868 5868 5868 5869
5850 5851 5852 5851 5851 5852 5852 5853 5853 5854 5854 5855 5855 5855 5856 5856 5857 5857 5858 5858 5859 5859 5859 5860 5860 5860 5860 5861 5861 5861 5862 5862 5863 5863 5863 5863 5864 5864 5864 5865 5865 5866 5866 5866 5867 5867 5867 5867 5867
5850 5850 5851 5850 5850 5851 5851 5852 5852 5853 5853 5853 5854 5854 5855 5855 5856 5856 5856 5857 5857 5858 5858 5858 5859 5859 5859 5859 5860 5860 5860 5861 5861 5861 5862 5862 5862 5862 5863 5863 5864 5864 5864 5865 5865 5865 5865 5865 5865
5849 5849 5849 5849 5849 5850 5850 5850 5851 5851 5852 5853 5853 5853 5854 5854 5855 5855 5855 5856 5856 5857 5857 5857 5857 5857 5858 5858 5858 5858 5859 5859 5859 5860 5860 5860 5860 5860 5861 5861 5862 5862 5862 5863 5863 5863 5863 5863 5863
5848 5849 5848 5848 5848 5849 5849 5849 5850 5850 5851 5851 5852 5852 5853 5853 5854 5854 5854 5855 5855 5855 5855 5855 5856 5856 5856 5856 5856 5857 5857 5857 5857 5858 5858 5858 5858 5858 5859 5859 5859 5860 5860 5860 5860 5861 5861 5861 5861
5847 5848 5847 5847 5847 5848 5848 5848 5849 5849 5849 5850 5850 5851 5852 5852 5852 5853 5853 5853 5853 5854 5854 5854 5854 5854 5854 5855 5855 5855 5855 5855 5855 5856 5856 5856 5856 5856 5857 5857 5857 5857 5857 5857 5858 5858 5858 5858 5858
5846 5846 5846 5846 5846 5846 5846 5847 5847 5848 5848 5848 5849 5849 5850 5850 5851 5851 5852 5852 5852 5852 5852 5853 5853 5853 5853 5853 5853 5853 5853 5854 5854 5854 5854 5854 5854 5854 5854 5855 5855 5855 5855 5855 5855 5855 5855 5855 5856
5844 5845 5845 5844 5845 5845 5845 5846 5846 5846 5846 5847 5847 5848 5848 5848 5849 5849 5850 5850 5850 5851 5851 5851 5851 5851 5851 5851 5851 5852 5852 5852 5852 5852 5852 5852 5852 5852 5852 5852 5852 5852 5852 5852 5852 5852 5852 5852 5853
5843 5843 5843 5843 5843 5844 5844 5844 5845 5845 5845 5846 5846 5846 5847 5847 5848 5848 5848 5849 5849 5849 5849 5849 5850 5850 5850 5850 5850 5850 5849 5850 5850 5849 5849 5849 5849 5849 5849 5849 5849 5849 5850 5850 5849 5849 5849 5849 5849
5841 5842 5842 5842 5842 5842 5842 5843 5843 5843 5844 5844 5844 5845 5845 5846 5846 5847 5847 5847 5847 5848 5848 5848 5848 5848 5848 5848 5847 5847 5847 5847 5847 5847 5847 5847 5846 5846 5846 5846 5846 5846 5846 5846 5846 5846 5846 5846 5846
5840 5840 5840 5840 5840 5840 5841 5841 5842 5842 5842 5843 5843 5843 5844 5844 5845 5845 5845 5846 5846 5846 5846 5846 5846 5846 5846 5845 5845 5845 5845 5845 5845 5845 5844 5844 5844 5844 5843 5843 5843 5843 5843 5843 5842 5842 5842 5842 5842
5838 5839 5839 5838 5838 5839 5840 5840 5840 5840 5841 5841 5842 5842 5842 5843 5843 5843 5844 5844 5844 5844 5844 5844 5844 5844 5844 5843 5843 5843 5842 5842 5842 5842 5842 5841 5841 5841 5841 5840 5840 5840 5839 5839 5839 5838 5838 5838 5838
5836 5837 5837 5837 5837 5837 5839 5839 5839 5839 5839 5840 5840 5840 5841 5841 5841 5841 5842 5842 5842 5842 5842 5842 5842 5842 5841 5841 5841 5840 5840 5840 5840 5840 5839 5839 5839 5838 5838 5837 5837 5836 5836 5835 5835 5835 5834 5834 5834
5834 5834 5835 5835 5835 5835 5836 5837 5837 5837 5837 5838 5838 5838 5839 5839 5839 5839 5839 5840 5840 5840 5840 5840 5839 5839 5839 5838 5838 5838 5838 5837 5837 5837 5836 5836 5836 5835 5835 5834 5834 5833 5832 5832 5831 5831 5830 5830 5829
5832 5832 5833 5833 5832 5833 5834 5834 5834 5835 5835 5836 5836 5836 5837 5837 5837 5837 5837 5837 5837 5837 5837 5837 5837 5836 5836 5836 5835 5835 5835 5835 5834 5834 5834 5833 5833 5832 5832 5831 5830 5830 5829 5828 5827 5827 5826 5825 5825
5830 5830 5830 5830 5830 5831 5831 5832 5832 5832 5833 5833 5834 5834 5834 5835 5835 5835 5835 5835 5835 5835 5834 5834 5834 5834 5833 5833 5833 5832 5832 5831 5831 5831 5830 5830 5829 5829 5828 5828 5827 5826 5825 5824 5824 5823 5822 5821 5821
5827 5827 5827 5828 5828 5828 5829 5830 5830 5830 5830 5830 5831 5831 5832 5832 5832 5832 5832 5832 5832 5832 5832 5831 5831 5831 5830 5830 5829 5829 5829 5828 5828 5827 5827 5826 5826 5825 5825 5824 5823 5822 5821 5821 5819 5819 5818 5817 5816
5824 5825 5825 5825 5826 5826 5826 5828 5828 5827 5827 5828 5828 5829 5829 5829 5830 5830 5830 5829 5829 5829 5829 5828 5828 5827 5827 5826 5826 5825 5825 5825 5824 5824 5823 5823 5822 5822 5821 5820 5819 5818 5817 5816 5815 5814 5813 5813 5812
5822 5822 5822 5822 5823 5823 5824 5824 5825 5824 5824 5825 5825 5826 5826 5826 5826 5826 5826 5826 5826 5826 5825 5825 5824 5824 5823 5823 5822 5822 5821 5821 5820 5820 5819 5819 5818 5817 5817 5816 5815 5814 5813 5812 5811 5810 5809 5808 5807
5820 5820 5820 5820 5819 5820 5820 5821 5823 5822 5822 5822 5823 5823 5823 5823 5823 5823 5823 5823 5823 5822 5822 5821 5820 5820 5819 5819 5818 5818 5817 5817 5816 5816 5816 5815 5814 5813 5812 5811 5810 5810 5809 5808 5807 5806 5805 5804 5803
5817 5817 5817 5817 5817 5817 5817 5817 5819 5819 5819 5819 5820 5820 5820 5820 5820 5820 5820 5819 5819 5818 5817 5817 5816 5816 5815 5814 5813 5813 5813 5812 5812 5811 5811 5811 5810 5809 5808 5807 5806 5805 5805 5804 5803 5802 5800 5799 5799
5814 5814 5814 5813 5813 5814 5814 5814 5816 5815 5815 5816 5816 5817 5817 5816 5816 5816 5816 5815 5815 5814 5813 5812 5812 5811 5810 5810 5809 5808 5808 5808 5807 5807 5806 5806 5806 5805 5804 5803 5802 5801 5800 5799 5798 5797 5796 5795 5795
5810 5810 5811 5811 5810 5811 5811 5811 5813 5812 5812 5812 5812 5812 5813 5812 5812 5812 5812 5811 5810 5809 5808 5807 5807 5806 5806 5805 5805 5804 5803 5803 5802 5802 5802 5801 5801 5800 5800 5799 5798 5797 5796 5795 5794 5793 5792 5791 5790
5807 5807 5807 5807 5807 5807 5807 5808 5809 5808 5808 5808 5808 5808 5808 5808 5808 5808 5807 5807 5806 5805 5803 5803 5802 5801 5801 5800 5800 5799 5799 5798 5798 5797 5797 5796 5796 5795 5795 5794 5793 5792 5791 5790 5789 5788 5787 5787 5786
5804 5803 5804 5803 5803 5803 5803 5803 5804 5804 5804 5804 5804 5804 5804 5804 5804 5803 5802 5802 5801 5800 5799 5798 5797 5797 5796 5795 5794 5794 5793 5793 5792 5792 5791 5790 5790 5790 5789 5788 5788 5787 5786 5785 5784 5783 5782 5782 5781
5800 5800 5799 5799 5799 5798 5798 5801 5799 5799 5799 5799 5799 5799 5799 5799 5799 5798 5798 5797 5796 5795 5793 5792 5792 5791 5790 5790 5789 5788 5787 5787 5786 5786 5785 5785 5784 5784 5783 5782 5782 5781 5780 5779 5779 5778 5777 5776 5775
5795 5795 5795 5795 5794 5793 5793 5797 5794 5793 5793 5793 5793 5793 5793 5793 5793 5793 5792 5791 5791 5789 5788 5787 5786 5785 5785 5784 5783 5782 5781 5781 5780 5780 5779 5779 5778 5777 5777 5776 5775 5775 5774 5773 5773 5772 5771 5770 5769